Probability
0 0 0 0 0 0 0 0 0 0 0 0 0 1 3 3 3 2 1 1 0 0 1 2 2 1 0 2 4 5 4 3 1 0 0 0 0 0 0 0 0 0 0 0
0 0 0 0 0 0 0 0 0 0 0 0 1 2 3 3 3 2 1 1 1 0 1 1 1 0 0 2 4 4 4 4 2 1 0 0 0 0 0 0 0 0 0 0
0 0 0 0 0 0 0 0 0 0 0 0 1 2 3 3 3 1 1 1 1 1 1 1 1 1 0 1 2 2 3 4 4 2 0 0 0 0 0 0 0 0 0 0
0 0 0 0 0 0 0 0 0 0 0 0 0 2 3 4 3 1 0 0 0 1 2 2 2 2 1 0 1 1 2 4 5 4 2 0 0 0 0 0 0 0 1 1
0 0 0 0 0 0 0 0 0 0 0 0 0 1 3 4 4 3 1 1 0 0 1 1 1 2 1 0 1 2 3 4 5 4 3 1 0 0 0 0 0 1 2 2
0 0 0 0 0 0 0 0 0 0 0 0 0 1 3 4 4 3 2 1 0 0 0 0 0 1 2 2 3 6 9 10 7 4 4 3 1 0 0 0 0 1 2 3
0 0 0 0 0 0 0 0 0 0 0 0 1 2 3 4 3 2 1 1 0 0 0 0 1 2 3 4 7 11 16 16 11 6 6 5 3 1 0 0 0 1 2 3
0 0 0 0 0 0 0 0 0 0 0 0 2 3 3 3 2 2 1 1 0 0 0 1 2 3 3 4 10 15 18 18 15 11 9 7 5 3 2 2 1 2 3 4
0 0 0 0 0 0 0 0 0 0 0 1 2 3 3 2 1 2 2 2 1 1 2 3 4 4 3 4 10 15 16 17 17 16 13 10 7 5 3 3 3 5 7 7
0 0 0 0 0 0 0 0 0 0 1 1 2 3 2 2 1 1 2 3 4 5 5 7 7 7 6 6 10 13 15 16 18 18 15 13 12 9 6 5 5 7 9 9
0 0 0 0 0 0 0 0 0 0 0 0 1 2 2 2 2 2 3 5 7 8 9 11 11 10 9 9 10 13 15 16 17 17 17 16 16 15 12 9 8 9 10 10
0 0 0 0 0 0 0 0 0 0 0 1 2 2 3 3 4 4 6 9 11 12 12 14 16 14 11 9 10 12 15 16 16 17 18 18 19 18 16 14 13 13 13 12
0 0 0 0 0 1 0 0 0 0 0 1 1 2 4 6 7 8 10 13 14 14 15 18 19 18 13 10 11 14 15 15 17 19 20 21 20 19 17 16 16 16 16 16
1 0 0 0 0 0 0 0 0 0 0 0 0 2 5 8 10 12 14 15 16 17 19 21 22 20 16 15 17 19 20 19 21 23 24 24 22 20 18 17 17 18 18 17
2 1 0 0 0 1 1 0 0 0 0 0 0 2 5 10 13 16 17 18 19 20 21 23 23 21 19 19 23 27 28 27 28 28 26 25 24 21 18 18 19 19 18 17
2 1 0 0 0 1 1 0 0 0 1 1 1 3 6 11 16 19 20 21 22 23 24 26 27 26 24 25 28 31 33 35 35 33 28 25 22 20 19 20 21 21 22 22
1 0 0 0 0 1 1 0 1 1 1 2 4 7 10 14 17 19 21 24 26 27 28 30 30 30 30 31 32 32 34 37 39 36 31 24 21 20 21 23 24 25 25 25
1 1 0 0 0 0 1 1 1 2 2 4 7 11 15 17 19 22 25 28 31 32 32 31 29 29 31 33 32 32 35 39 41 38 32 27 23 24 25 27 28 29 29 28
2 2 1 0 0 0 1 2 1 1 2 5 10 14 17 18 22 26 30 33 34 33 32 30 28 28 30 31 32 36 40 43 43 38 33 29 27 28 30 32 34 35 33 32
2 2 1 0 0 0 2 2 1 0 2 6 11 14 17 19 24 30 36 38 36 34 33 31 30 31 32 33 36 42 46 46 42 37 33 31 31 33 35 36 37 38 36 34
1 1 0 0 0 1 2 3 3 4 7 12 15 17 19 23 28 34 36 36 36 35 33 32 32 32 33 36 40 44 45 42 38 35 31 31 34 35 35 35 37 37 36 35
2 1 0 0 1 4 6 6 7 11 16 19 21 22 24 27 31 34 33 33 32 31 31 31 31 31 31 32 36 38 37 34 31 30 28 27 30 32 31 31 33 34 34 33
4 3 3 3 5 10 13 12 14 18 21 22 24 27 29 29 29 31 31 30 27 26 27 27 26 25 24 26 29 29 28 26 26 26 25 23 24 27 28 28 28 29 31 31
6 7 7 8 11 15 17 18 20 21 21 22 25 28 30 28 26 26 27 25 22 21 22 21 20 19 19 21 23 23 23 23 24 24 23 23 23 25 26 26 25 25 26 27
9 9 9 11 13 16 18 20 22 22 22 24 26 28 31 28 24 22 21 21 20 19 19 18 16 16 17 17 17 18 19 20 21 22 23 23 22 22 23 24 22 20 20 21
8 9 10 11 13 15 18 20 22 24 24 25 26 28 30 29 23 19 18 19 20 19 18 17 15 14 15 16 15 15 17 19 19 20 22 22 19 19 22 22 20 17 16 16
Wind_Speed
9 10 9 7 6 6 5 6 3 1 2 5 5 4 5 9 9 9 9 9 9 8 8 8 8 7 7 7 7 7 6 6 5 3 3 3 3 3 3 3 4 4 3 4
11 13 9 6 6 7 7 7 4 2 2 4 4 3 4 8 10 9 9 9 9 9 9 9 8 8 8 8 8 8 7 7 6 4 3 2 2 3 3 2 3 3 4 3
16 9 7 8 9 9 8 7 5 3 3 6 5 5 5 7 9 9 9 9 10 10 10 10 10 9 9 9 9 7 8 7 7 6 4 4 4 3 3 4 3 3 3 3
13 10 9 11 11 10 9 5 6 5 6 4 5 4 4 7 9 10 11 11 11 11 10 10 11 10 10 9 9 8 8 7 7 6 5 5 4 3 3 3 3 4 3 3
11 11 12 13 11 9 6 4 6 7 8 7 6 7 3 6 6 8 10 11 11 11 11 11 11 11 10 10 9 9 9 8 8 7 6 5 4 4 3 3 4 3 3 3
8 8 10 10 9 8 6 6 6 8 9 9 5 7 3 3 4 4 7 9 10 10 11 11 11 10 10 10 9 9 9 9 8 8 7 6 5 4 4 4 4 4 4 4
11 12 9 9 11 10 11 10 8 9 8 6 4 7 3 0 1 2 4 7 8 10 11 11 11 11 11 11 10 10 10 9 9 8 7 7 6 6 5 5 5 4 4 4
13 13 12 11 12 10 13 13 10 8 7 5 6 6 2 2 1 2 3 5 7 9 10 11 11 11 11 12 11 11 10 10 9 8 7 6 6 5 4 5 4 4 3 3
10 10 9 9 10 12 13 13 11 11 10 9 6 5 5 4 4 4 5 5 6 7 9 10 11 11 11 11 11 11 11 10 9 9 8 7 7 6 4 4 5 4 3 4
7 8 9 9 9 9 11 10 8 11 9 10 8 8 5 6 6 5 4 4 5 6 7 8 9 10 10 10 11 11 10 10 9 9 8 6 7 6 6 5 5 4 4 3
9 10 9 11 12 11 10 12 11 10 9 10 9 4 2 5 5 4 3 3 4 5 6 7 8 9 10 10 10 10 10 9 8 8 8 7 6 6 6 5 5 5 4 4
7 9 9 10 6 7 11 12 12 11 10 11 10 4 3 3 4 3 2 3 3 4 5 7 7 8 8 9 10 10 9 9 8 8 7 7 6 6 6 6 5 5 4 4
5 8 10 11 11 10 11 11 13 13 11 10 11 5 4 2 2 3 3 3 3 4 5 6 7 7 7 7 8 9 9 9 8 8 8 7 7 6 6 5 5 5 5 4
6 9 11 11 7 8 11 12 12 14 11 11 12 8 3 3 3 3 3 3 3 5 5 6 6 6 6 6 7 8 8 8 8 8 8 7 7 7 6 6 5 5 5 5
7 10 10 9 7 7 10 11 12 14 13 13 9 8 6 4 4 3 3 3 3 4 5 5 5 5 5 6 6 7 7 7 7 7 7 7 7 6 6 5 5 5 5 5
5 7 8 9 8 8 9 11 12 13 13 13 11 8 3 2 3 3 3 3 3 3 4 4 5 5 5 5 5 6 6 6 7 7 7 6 6 6 6 6 5 5 5 5
6 7 9 9 8 10 12 10 11 11 11 11 10 6 2 3 3 3 3 3 3 3 3 4 4 4 4 4 5 6 6 6 7 6 6 5 5 5 5 5 5 5 5 5
7 9 8 8 8 14 5 3 6 9 9 8 7 3 3 3 2 2 2 3 3 3 3 3 3 3 4 4 5 5 5 6 6 6 5 5 6 6 5 5 5 4 4 4
8 9 8 8 11 10 6 4 6 9 8 5 5 3 2 2 3 3 2 1 2 2 2 1 2 2 3 4 4 5 5 5 6 5 5 5 5 5 5 5 4 4 3 3
7 8 10 9 11 10 3 1 3 7 9 3 4 4 4 4 5 2 2 2 2 3 2 2 2 3 3 3 4 4 5 4 4 4 4 4 4 4 4 4 4 3 4 4
8 8 11 11 10 5 2 1 4 8 2 2 3 4 4 4 2 2 3 3 3 4 4 4 3 3 3 3 4 4 4 3 3 3 3 3 3 3 3 3 2 3 3 3
6 7 8 9 10 5 4 0 2 3 4 2 2 1 2 2 4 4 4 4 4 4 5 4 4 4 3 3 4 4 3 2 2 3 3 3 3 2 2 2 2 3 3 3
4 3 2 3 1 4 2 3 4 3 2 2 1 0 2 4 4 5 4 4 5 5 4 4 4 4 4 3 3 3 2 2 2 3 3 2 2 1 1 2 2 3 3 3
2 1 2 2 1 1 2 2 2 2 2 2 1 1 3 4 5 5 5 5 5 4 4 4 4 4 4 3 3 3 2 1 2 3 2 2 2 2 2 2 2 1 1 2
2 2 3 4 1 1 0 2 2 2 1 1 2 3 4 5 6 5 5 5 4 4 4 3 3 4 4 3 3 3 2 1 0 2 2 2 2 2 2 2 0 1 1 1
3 3 4 2 0 1 0 1 2 1 2 2 2 4 4 5 6 6 5 5 4 4 4 4 4 4 4 4 4 3 3 2 1 1 1 1 1 1 2 2 1 2 1 2
Wind_Direction
200 223 224 224 234 265 273 273 268 122 153 230 241 242 182 182 194 189 186 187 189 188 177 173 177 175 172 171 173 176 175 168 176 176 181 172 162 163 153 153 145 155 162 155
207 224 226 227 225 242 252 259 252 183 175 248 260 248 198 190 200 200 197 192 194 186 176 175 181 180 178 175 177 178 178 175 183 176 181 172 155 161 149 144 142 158 162 170
223 218 200 216 222 232 240 258 269 258 209 218 252 214 188 183 201 203 207 201 195 193 185 180 183 186 182 179 181 182 181 179 185 181 180 168 161 176 158 162 160 166 170 174
227 217 207 220 226 236 238 244 263 245 238 223 251 271 164 177 192 202 205 204 199 193 190 186 183 186 185 182 179 181 181 183 184 186 191 186 184 178 167 175 160 163 170 176
211 210 214 224 228 232 250 232 240 243 249 255 225 265 175 168 200 200 201 203 202 195 190 187 187 185 184 181 178 177 181 183 185 192 189 198 200 187 172 171 159 177 176 190
222 208 223 229 227 221 204 206 219 234 244 246 245 259 256 174 220 209 191 196 200 195 190 186 184 181 182 180 180 177 177 182 185 190 193 201 203 198 183 179 177 187 183 188
208 207 204 216 212 200 212 224 227 227 230 238 213 247 258 82 209 209 179 181 189 190 188 185 183 182 184 183 181 179 177 182 185 189 195 199 204 203 201 203 191 200 194 189
207 203 196 206 222 216 218 235 245 255 256 237 203 237 211 146 145 153 164 166 173 181 185 185 184 184 185 185 183 181 180 183 184 187 192 197 203 210 206 209 216 203 209 199
219 208 182 203 223 234 223 231 252 256 259 261 231 221 213 190 190 172 166 167 170 176 179 183 183 185 183 184 183 184 182 185 187 188 189 193 199 211 212 204 217 215 209 204
235 225 192 190 208 221 244 238 235 245 252 259 241 232 220 198 197 185 174 170 168 174 177 176 178 182 181 180 181 184 183 185 187 188 192 190 197 204 212 216 213 224 217 213
237 230 203 200 215 214 209 220 232 246 253 258 259 236 189 200 200 193 177 172 170 175 174 170 174 178 177 175 177 181 182 184 188 191 192 198 197 202 208 213 218 218 221 217
226 238 228 217 210 247 232 230 225 234 239 248 264 250 111 176 198 191 177 170 170 171 170 165 163 168 174 175 177 178 182 185 188 189 190 196 199 203 208 210 216 216 217 220
216 235 225 212 202 206 224 227 233 239 243 244 252 235 144 158 203 197 188 166 164 165 164 163 162 166 173 177 179 180 183 185 186 186 190 191 195 199 207 215 215 217 219 222
241 237 244 245 240 213 218 221 230 238 240 244 247 255 219 210 208 210 196 170 162 164 164 166 167 167 169 177 180 183 185 183 183 186 189 189 195 200 203 207 211 215 218 222
236 235 240 254 254 236 234 228 225 235 248 257 256 256 258 245 228 209 188 174 159 162 166 171 177 172 176 178 180 182 184 181 180 184 191 192 195 198 204 207 213 214 216 219
235 237 230 236 232 230 235 231 230 236 243 249 254 258 284 265 220 202 188 181 178 175 178 179 180 179 182 179 180 178 179 179 178 185 192 190 195 200 205 208 212 211 215 223
221 227 232 230 224 232 231 230 232 236 242 250 254 264 242 233 232 218 203 201 198 196 194 190 186 182 179 178 178 177 175 175 177 182 187 187 198 206 211 211 208 210 214 220
234 233 235 234 222 235 226 225 242 243 244 252 261 260 247 239 224 210 205 202 197 187 185 183 184 180 176 174 175 178 174 170 172 177 182 184 193 199 200 203 204 203 204 210
228 229 235 234 230 230 220 233 245 244 243 250 254 237 218 207 195 196 171 156 154 159 162 162 172 161 157 167 168 169 170 169 174 180 187 191 194 198 196 201 202 201 198 209
198 224 235 235 243 240 228 254 270 246 233 235 252 230 215 224 233 188 123 124 115 109 109 114 115 117 125 150 157 162 163 166 174 180 188 191 192 199 201 202 204 199 195 204
196 209 228 234 240 240 43 3 225 231 251 337 263 232 221 236 289 115 126 114 106 101 95 90 94 95 96 113 134 145 143 146 152 155 154 160 167 181 186 186 197 209 208 202
227 215 219 232 235 222 56 206 270 357 1 341 322 236 209 133 112 121 117 110 106 104 97 93 90 89 90 101 120 129 129 126 129 136 142 149 160 172 157 168 184 211 222 208
246 294 263 270 297 40 36 4 1 352 348 344 333 334 151 135 132 124 113 105 97 94 93 95 98 96 92 88 95 103 96 100 120 132 140 151 161 157 160 184 190 204 213 232
165 281 248 232 193 26 15 13 3 0 348 342 329 138 136 134 131 125 118 110 100 90 90 97 104 98 88 83 82 79 61 83 137 144 155 173 175 174 168 209 202 225 236 247
323 233 229 226 230 217 23 11 9 26 40 56 98 115 128 130 128 124 117 109 102 95 91 95 103 100 91 84 78 70 55 40 136 172 186 197 191 178 192 186 138 245 7 352
268 266 266 273 220 271 14 22 5 44 77 99 116 115 118 121 121 119 111 103 102 97 95 96 94 92 90 83 75 60 51 37 321 232 222 221 215 188 201 179 156 91 110 107